Regional Weather Roundup
Issued by NWS

Home | Current Version | Previous Version | Graphics & Text | Print | Product List | Glossary On
Versions: 1 2 3 4 5 6 7 8 9 10 11 12 13 14 15 16 17 18 19 20 21 22 23 24 25 26 27 28 29 30 31 32 33 34 35 36 37 38 39 40 41 42 43 44 45 46 47 48 49 50
000
ASUS43 KIND 221609
RWRIN

WEATHER ROUNDUP FOR INDIANA
NATIONAL WEATHER SERVICE INDIANAPOLIS IN
1100 AM EST SUN JAN 22 2017

NOTE: "FAIR" INDICATES FEW OR NO CLOUDS BELOW 12,000 FEET WITH NO
SIGNIFICANT WEATHER AND/OR OBSTRUCTIONS TO VISIBILITY.

* - STATION DOES NOT REPORT WEATHER SUCH AS PRECIPITATION OR FOG.

+ - STATION NOT QUALITY CONTROLLED BY THE NATIONAL WEATHER SERVICE.
    USE DATA WITH CAUTION...ESPECIALLY DEWPOINT AND RELATIVE
    HUMIDITY OBSERVATIONS.

INZ001>003-010>013-019-020-221700-
NORTHWEST INDIANA

CITY           SKY/WX    TMP DP  RH WIND       PRES   REMARKS
GARY /AIRPORT/ FOG       39  39 100 NE5       29.66R VSB 1/4
KNOX *+        CLOUDY    37  32  81 N8        29.64R VSB 1/4
LA PORTE +     FOG       39  39 100 N7        29.65R VSB 1/4
MICHIGAN CITY+ FOG       39  39 100 CALM      29.67R VSB 1/4
MONTICELLO +   CLOUDY    43  42  95 N5        29.61R
RENSSELAER +   FOG       37  37 100 N7        29.64R VSB 1/4
VALPARAISO     FOG       41  40  96 N8        29.64R VSB 1/2

$$

LMZ046-743>745-221700-
SOUTHERN LAKE MICHIGAN

STATION/POSITION TIME  TEMP    WIND        PRES    WAVE
                       AIR SEA DIR/SP/G            HT
                 (UTC) (F)     (DEG/KT/KT) (MB)    (FT)
BURNS HARBOR     1540   36      70/  8/  9 1005.1R
MICHIGAN CITY    1540   37      30/  9/ 10   N/A

$$

INZ004-005-014>016-021>024-221700-
NORTH CENTRAL INDIANA

CITY           SKY/WX    TMP DP  RH WIND       PRES   REMARKS
ELKHART        FOG       41  39  93 CALM      29.64R VSB 1/4
GOSHEN         FOG       44  42  93 N3        29.63R VSB<1/4
LOGANSPORT +   CLOUDY    48  48 100 CALM      29.61S
PERU/GRISSOM   CLOUDY    51  51 100 SE3       29.58S
ROCHESTER +    CLOUDY    43  43 100 N6        29.62S FOG
SOUTH BEND     FOG       38  38 100 N7        29.65R VSB 1/4
WARSAW +       FOG       41  41 100 CALM      29.63R VSB 1/2

$$

INZ006>009-017-018-025>027-221700-
NORTHEAST INDIANA

CITY           SKY/WX    TMP DP  RH WIND       PRES   REMARKS
ANGOLA *+      SUNNY     48  46  93 CALM      29.62S
AUBURN +       CLOUDY    46  46 100 CALM      29.62S
FORT WAYNE     CLOUDY    52  48  86 S6        29.61S
HUNTINGTON +   CLOUDY    51  49  93 SE3       29.60S
KENDALLVILLE + CLOUDY    46  46 100 CALM      29.62S FOG

$$

INZ028-029-035-036-043>045-051>053-221700-
WEST CENTRAL INDIANA

CITY           SKY/WX    TMP DP  RH WIND       PRES   REMARKS
CRAWFORDSVL +  CLOUDY    53  53 100 E3        29.58F
GREENCASTLE +  CLOUDY    52  50  93 NE5       29.58S
LAFAYETTE      CLOUDY    49  49 100 N3        29.60S
TERRE HAUTE    CLOUDY    53  49  86 NE6       29.56F

$$

INZ030>032-037>040-046>048-054>057-064-065-221700-
CENTRAL INDIANA

CITY           SKY/WX    TMP DP  RH WIND       PRES   REMARKS
CP ATTERBURY + CLOUDY    50  50 100 CALM      29.58S
COLUMBUS       MOSUNNY   50  50 100 NE6       29.57S
FISHERS *+     CLOUDY    54  52  94 CALM      29.58
FRANKFORT +    CLOUDY    55  52  90 CALM      29.61S
GREENWOOD *+   CLOUDY    55  52  89 E6        29.58S
INDIANAPOLIS   CLOUDY    54  50  86 E7        29.57S
-EAGLE CREEK   CLOUDY    54  50  86 E3        29.57S
KOKOMO +       CLOUDY    51  48  89 CALM      29.61R
MARION +       CLOUDY    54  48  82 SE7       29.60S
MT COMFORT *+  CLOUDY    54  50  87 E5        29.59S
SHELBYVILLE    CLOUDY    56  51  84 E8        29.56S
ZIONSVILLE +   PTSUNNY   55  51  84 E3        29.59S

$$

INZ033-034-041-042-049-050-058-059-221700-
EAST CENTRAL INDIANA

CITY           SKY/WX    TMP DP  RH WIND       PRES   REMARKS
MUNCIE         CLOUDY    56  49  77 E6        29.59S

$$

INZ060-061-067>069-081>083-085>088-221700-
SOUTHWEST INDIANA

CITY           SKY/WX    TMP DP  RH WIND       PRES   REMARKS
EVANSVILLE     CLOUDY    55  50  83 NE8       29.49F
HUNTINGBURG *+ CLOUDY    54  50  87 NE7       29.51S
WASHINGTON +   CLOUDY    53  50  91 NE3       29.52F

$$

INZ062-063-066-070>080-084-089>092-221700-
SOUTH CENTRAL AND SOUTHEAST INDIANA

CITY           SKY/WX    TMP DP  RH WIND       PRES   REMARKS
BLOOMINGTON    CLOUDY    55  49  80 E3        29.55S
MADISON *+     CLOUDY    54  50  87 NE8       29.56F
SEYMOUR +      CLOUDY    54  54 100 NE3       29.54F

$$




USA.gov is the U.S. government's official web portal to all federal, state and local government web resources and services.